Hourly Data Report for May 23, 2022

OTTAWA INTL A
ONTARIO
Current Station Operator: NAVCAN

45°19'00.000" N
75°40'00.000" W
114.90 m
6106001
71628
YOW

Download Data

Hourly Data (May 2022)
Hourly Data Report for May 23, 2022
TIME
LST
Temp Definition
°C
Dew Point Definition
°C
Rel Hum Definition
%
Precip. Amount Definition
mm

Wind Dir Definition
10's deg

Wind Spd Definition
km/h
Visibility Definition
km
Stn Press Definition
kPa
Hmdx Definition


Wind Chill Definition


Weather Definition


00:00 8.1 6.0 86   1 8 24.1 101.02     LegendNANA
01:00 8.1 4.8 80   35 13 24.1 101.02     Clear
02:00 7.2 4.7 84   35 10 24.1 101.07     LegendNANA
03:00 6.4 4.5 88   1 10 24.1 101.09     LegendNANA
04:00 6.9 5.2 88   35 8 24.1 101.12     Mostly Cloudy
05:00 6.9 5.7 92   31 5 24.1 101.20     LegendNANA
06:00 8.3 4.6 77   2 10 24.1 101.27     LegendNANA
07:00 9.8 4.2 68   4 13 24.1 101.30     Mostly Cloudy
08:00 10.5 4.1 65   2 10 24.1 101.36     LegendNANA
09:00 11.3 1.4 50   10 4 24.1 101.37     LegendNANA
10:00 13.1 2.9 50   8 13 24.1 101.35     Mostly Cloudy
11:00 13.1 2.4 48   16 7 24.1 101.35     LegendNANA
12:00 14.0 3.6 49   10 7 24.1 101.33     LegendNANA
13:00 15.8 3.4 43   1 8 24.1 101.27     Mostly Cloudy
14:00 15.8 3.2 43   29 7 24.1 101.23     LegendNANA
15:00 15.6 1.8 39   25 11 24.1 101.21     LegendNANA
16:00 15.6 1.6 39   31 7 24.1 101.23     Mostly Cloudy
17:00 15.5 2.1 40   27 3 24.1 101.22     LegendNANA
18:00 14.1 5.7 57   15 7 24.1 101.23     LegendNANA
19:00 13.6 5.0 56   9 9 24.1 101.25     Mostly Cloudy
20:00 12.6 5.6 62   9 6 24.1 101.26     LegendNANA
21:00 11.4 6.9 74   9 4 24.1 101.31     LegendNANA
22:00 10.0 6.4 78   9 5 24.1 101.31     Mostly Cloudy
23:00 8.3 6.1 86   9 8 24.1 101.33     LegendNANA

Notes on Data Quality.

Legend

  • E = Estimated
  • M = Missing
  • NA = Not Available*
  • [empty] = Indicates an unobserved value
Date modified: